Location: Hilina Pali Trail
(19.2864°N, 155.2806°W)
Time: 15:58:16
(UTC+00:00)

Daily predictions for brighter satellites

Satellite Brightness Start Highest point End
(mag) Time Altitude Azimuth Time Altitude Azimuth Time Altitude Azimuth
CZ-4B R/B 4.0 13:40:56 10° NNE 13:44:41 46° NE 13:44:41 46° NE
Cosmos 2082 Rocket 3.9 13:46:09 21° SE 13:48:33 29° ESE 13:53:22 10° NE
Okean O Rocket 4.1 13:45:49 10° N 13:46:41 16° N 13:46:41 16° N
CZ-3 Stage 3 4.3 13:24:47 10° WNW 13:57:21 17° SSE 13:58:14 10° SSE
Cosmos 2074 Rocket 4.4 13:48:39 10° N 13:53:07 50° NNW 13:53:07 50° NNW
ADEOS Rocket 4.0 13:55:40 10° NNE 14:03:16 58° E 14:10:24 10° S
Okean-O 4.0 13:59:13 10° NNE 14:03:17 36° E 14:04:23 31° SE
Cosmos 1656 Rocket 4.0 13:58:00 10° N 14:03:19 59° ENE 14:08:39 10° SSE
Cosmos 2184 Rocket 4.2 13:57:33 10° N 14:02:41 57° NW 14:02:41 57° NW
Atlas Centaur 2 3.6 14:04:55 18° N 14:04:55 18° N 14:07:37 10° NE
Timation 2 Rocket 4.1 14:04:52 45° S 14:06:47 68° ESE 14:12:52 10° NNE
OAO 1 Rocket 4.4 14:12:49 74° N 14:12:49 74° N 14:17:57 10° NE
Cosmos 1023 Rocket 4.3 14:14:07 80° SSE 14:14:21 84° ESE 14:19:26 10° NNE
Cosmos 1610 Rocket 4.3 14:09:53 10° N 14:16:10 81° W 14:22:22 10° S
Cosmos 1954 Rocket 4.5 14:20:25 44° NW 14:20:25 44° NW 14:24:25 10° N
MOZ.5/SAFIR/RUBIN 5/SL-8 4.0 14:21:23 56° NNW 14:21:23 56° NNW 14:25:05 10° NNW
Thor Agena Rocket 4.3 14:18:57 10° SSE 14:23:53 52° ENE 14:28:54 10° N
ISS -0.2 14:25:21 10° SE 14:25:48 10° ESE 14:26:14 10° ESE
Cosmos 2341 Rocket 4.3 14:24:46 10° N 14:31:04 69° E 14:37:25 10° SSE
Cosmos 1674 Rocket 4.2 14:27:59 12° S 14:32:03 54° E 14:36:22 10° NNE
SWIFT 2.8 14:33:49 46° S 14:34:07 47° SSE 14:38:13 10° E
BREEZE-M DEB (TANK) 4.3 14:32:39 38° WSW 14:34:08 42° SW 14:50:11 10° SSE
Okean 2 Rocket 3.0 14:32:35 10° NNW 14:37:02 61° W 14:38:04 47° SSW
Cosmos 2285 Rocket 4.2 14:32:54 10° NNW 14:38:54 45° W 14:44:53 10° S
Meteor PRIRODA 3.6 14:38:35 10° N 14:42:21 89° W 14:43:49 36° SSW
USA 229 DEB 3.6 14:38:47 27° SW 14:42:51 75° WNW 14:49:47 10° NNE
USA 229 3.6 14:38:50 26° SW 14:42:57 76° WNW 14:49:53 10° NNE
OAO 3 Copernicus 4.2 14:42:20 33° WNW 14:44:38 84° SW 14:49:40 10° SE
Cosmos 1850 Rocket 3.9 14:43:08 30° SSW 14:45:44 65° WNW 14:51:00 10° N
Meteor 2-10 Rocket 3.9 14:44:32 27° SW 14:47:25 50° W 14:52:58 10° N
SeaSat 1 2.5 14:43:33 10° SSE 14:48:28 83° ENE 14:53:24 10° NNW
SL-8 R/B 3.8 14:51:29 35° WSW 14:53:11 55° NW 14:57:52 10° NNE
BREEZE M DEB (TANK) 2.8 14:54:45 24° NNW 14:54:45 24° NNW 14:56:39 10° NNE
ADEOS II 2.2 14:50:20 10° N 14:55:27 55° WNW 14:59:57 13° SSW
MOS 1 Rocket 3.6 14:51:21 10° NNE 14:55:37 61° E 15:00:02 10° S
XTE 3.4 14:57:49 41° WNW 14:58:31 53° N 15:01:31 10° ENE
Delta 198 4.5 14:57:07 20° WNW 15:01:35 81° NNE 15:08:27 10° ESE
Cosmos 1140 Rocket 4.5 15:03:29 23° W 15:04:38 25° WNW 15:08:51 10° NNW
Cosmos 1606 2.6 15:01:53 10° S 15:05:47 72° W 15:09:41 10° N
CZ-4B R/B 4.0 15:06:11 10° N 15:10:34 67° WNW 15:14:46 10° SSW
NOSS 3-1 (C) 4.0 15:05:46 10° S 15:11:13 53° ESE 15:16:57 10° NE
USA 116 4.2 15:15:02 10° S 15:19:33 62° W 15:24:35 10° NNW
Cosmos 1782 3.9 15:17:56 16° SW 15:20:06 24° W 15:23:23 10° NNW
Delta 168 4.2 15:13:49 15° W 15:20:13 61° NNW 15:25:20 10° ENE
Cosmos 2369 4.1 15:18:04 10° N 15:23:47 70° ENE 15:29:27 10° SSE
Cosmos 2366 rocket 4.1 15:19:34 10° N 15:25:44 82° E 15:31:52 10° S
Cosmos 1975 Rocket 3.3 15:21:56 10° S 15:26:13 71° E 15:30:31 10° N
SEDSat Delta rocket 4.1 15:25:01 12° WNW 15:28:18 29° NNW 15:32:04 10° NE
Radarsat Rocket 4.5 15:21:14 10° N 15:28:59 73° WNW 15:35:46 10° SSW
COBE Rocket 4.1 15:26:12 10° N 15:31:09 55° WNW 15:35:58 10° SSW
Cosmos 2082 Rocket 3.4 15:28:05 10° WSW 15:32:27 24° WNW 15:36:56 10° NNW
CZ-4 R/B 4.2 15:30:59 10° NE 15:33:57 21° E 15:36:54 10° SSE
Ariane Rocket 3.0 15:32:30 10° N 15:37:32 67° WNW 15:42:34 10° SSW
Meteor 1-27 Rocket 4.0 15:32:49 10° SSW 15:38:09 45° W 15:43:25 10° N
Cosmos 1833 Rocket 3.7 15:34:16 10° SW 15:38:50 26° WNW 15:43:26 10° NNW
SL-08 R/B 4.5 15:35:37 10° NNW 15:41:37 62° W 15:47:38 10° S
ASTRO E2 3.5 15:38:36 10° W 15:42:25 41° NNW 15:46:14 10° NE
